timestamp,wind_dir_avg,wind_spd_max_dir,wind_spd_avg,wind_spd_gust,battery_voltage,lat,long
2017-11-21 00:00:00+00:00,260.0,262.0,10.97,12.67,,47.59359,-54.27349
2017-11-21 00:10:00+00:00,262.0,262.0,11.24,12.46,,47.59359,-54.27349
2017-11-21 00:20:00+00:00,249.0,251.0,9.29,11.39,,47.59359,-54.27349
2017-11-21 00:30:00+00:00,251.0,251.0,10.24,11.39,,47.59359,-54.27349
2017-11-21 00:40:00+00:00,252.0,251.0,9.67,10.88,,47.59359,-54.27349
2017-11-21 00:50:00+00:00,251.0,260.0,10.51,11.73,,47.59359,-54.27349
2017-11-21 01:00:00+00:00,260.0,258.0,11.32,13.15,,47.59359,-54.27349
2017-11-21 01:10:00+00:00,263.0,264.0,11.73,13.05,,47.59359,-54.27349
2017-11-21 01:20:00+00:00,262.0,263.0,10.13,11.63,,47.59359,-54.27349
2017-11-21 01:30:00+00:00,258.0,264.0,10.01,11.48,,47.59359,-54.27349
2017-11-21 01:40:00+00:00,252.0,251.0,10.35,11.85,,47.59359,-54.27349
2017-11-21 01:50:00+00:00,249.0,248.0,11.77,13.92,,47.59359,-54.27349
2017-11-21 02:00:00+00:00,243.0,253.0,9.02,11.55,,47.59359,-54.27349
2017-11-21 02:10:00+00:00,251.0,251.0,10.71,11.63,,47.59359,-54.27349
2017-11-21 02:20:00+00:00,251.0,247.0,9.68,12.6,,47.59359,-54.27349
2017-11-21 02:30:00+00:00,253.0,252.0,9.74,11.18,,47.59359,-54.27349
2017-11-21 02:40:00+00:00,259.0,260.0,11.5,13.04,,47.59359,-54.27349
2017-11-21 02:50:00+00:00,254.0,252.0,10.17,11.71,,47.59359,-54.27349
2017-11-21 03:00:00+00:00,254.0,251.0,9.29,10.41,,47.59359,-54.27349
2017-11-21 03:10:00+00:00,256.0,259.0,8.4,10.33,,47.59359,-54.27349
2017-11-21 03:20:00+00:00,252.0,258.0,9.39,10.3,,47.59359,-54.27349
2017-11-21 03:30:00+00:00,251.0,257.0,9.14,10.36,,47.59359,-54.27349
2017-11-21 03:40:00+00:00,248.0,252.0,9.31,10.32,,47.59359,-54.27349
2017-11-21 03:50:00+00:00,248.0,255.0,8.32,9.97,,47.59359,-54.27349
2017-11-21 04:00:00+00:00,249.0,255.0,10.11,11.27,,47.59359,-54.27349
2017-11-21 04:10:00+00:00,256.0,260.0,8.36,9.47,,47.59359,-54.27349
2017-11-21 04:20:00+00:00,255.0,259.0,8.01,9.39,,47.59359,-54.27349
2017-11-21 04:30:00+00:00,250.0,250.0,7.5,8.87,,47.59359,-54.27349
2017-11-21 04:40:00+00:00,251.0,251.0,9.57,10.9,,47.59359,-54.27349
2017-11-21 04:50:00+00:00,253.0,254.0,8.45,10.65,,47.59359,-54.27349
2017-11-21 05:00:00+00:00,253.0,251.0,9.12,10.61,,47.59359,-54.27349
2017-11-21 05:10:00+00:00,257.0,261.0,9.01,10.05,,47.59359,-54.27349
2017-11-21 05:20:00+00:00,258.0,263.0,8.32,9.55,,47.59359,-54.27349
2017-11-21 05:30:00+00:00,264.0,273.0,7.57,9.82,,47.59359,-54.27349
2017-11-21 05:40:00+00:00,266.0,267.0,9.98,11.91,,47.59359,-54.27349
2017-11-21 05:50:00+00:00,276.0,281.0,10.06,11.6,,47.59359,-54.27349
2017-11-21 06:00:00+00:00,274.0,274.0,8.94,10.13,,47.59359,-54.27349
2017-11-21 06:10:00+00:00,269.0,274.0,8.45,9.91,,47.59359,-54.27349
2017-11-21 06:20:00+00:00,277.0,279.0,8.47,9.69,,47.59359,-54.27349
2017-11-21 06:30:00+00:00,286.0,283.0,8.75,10.48,,47.59359,-54.27349
2017-11-21 06:40:00+00:00,282.0,284.0,8.25,9.41,,47.59359,-54.27349
2017-11-21 06:50:00+00:00,273.0,266.0,7.53,8.85,,47.59359,-54.27349
2017-11-21 07:00:00+00:00,284.0,284.0,8.14,9.16,,47.59359,-54.27349
2017-11-21 07:10:00+00:00,285.0,293.0,7.52,8.72,,47.59359,-54.27349
2017-11-21 07:20:00+00:00,285.0,285.0,8.4,10.19,,47.59359,-54.27349
2017-11-21 07:30:00+00:00,280.0,279.0,7.06,8.79,,47.59359,-54.27349
2017-11-21 07:40:00+00:00,263.0,265.0,5.71,6.48,,47.59359,-54.27349
2017-11-21 07:50:00+00:00,273.0,275.0,6.54,7.77,,47.59359,-54.27349
2017-11-21 08:00:00+00:00,267.0,272.0,5.56,7.33,,47.59359,-54.27349
2017-11-21 08:10:00+00:00,275.0,274.0,5.67,6.96,,47.59359,-54.27349
2017-11-21 08:20:00+00:00,274.0,280.0,6.48,7.74,,47.59359,-54.27349
2017-11-21 08:30:00+00:00,286.0,278.0,10.49,12.07,,47.59359,-54.27349
2017-11-21 08:40:00+00:00,287.0,286.0,9.09,10.54,,47.59359,-54.27349
2017-11-21 08:50:00+00:00,270.0,274.0,9.44,10.78,,47.59359,-54.27349
2017-11-21 09:00:00+00:00,270.0,272.0,9.31,10.5,,47.59359,-54.27349
2017-11-21 09:10:00+00:00,282.0,286.0,8.07,9.36,,47.59359,-54.27349
2017-11-21 09:20:00+00:00,304.0,299.0,6.03,7.31,,47.59359,-54.27349
2017-11-21 09:30:00+00:00,318.0,322.0,5.28,6.93,,47.59359,-54.27349
2017-11-21 09:40:00+00:00,301.0,291.0,5.75,6.48,,47.59359,-54.27349
2017-11-21 09:50:00+00:00,297.0,303.0,4.75,5.71,,47.59359,-54.27349
2017-11-21 10:00:00+00:00,308.0,307.0,6.73,7.88,,47.59359,-54.27349
2017-11-21 10:10:00+00:00,283.0,288.0,6.64,7.59,,47.59359,-54.27349
2017-11-21 10:20:00+00:00,281.0,275.0,6.61,9.04,,47.59359,-54.27349
2017-11-21 10:30:00+00:00,297.0,295.0,7.05,8.11,,47.59359,-54.27349
2017-11-21 10:40:00+00:00,297.0,299.0,6.27,6.97,,47.59359,-54.27349
2017-11-21 10:50:00+00:00,298.0,296.0,6.29,8.42,,47.59359,-54.27349
2017-11-21 11:00:00+00:00,297.0,288.0,7.22,8.91,,47.59359,-54.27349
2017-11-21 11:10:00+00:00,299.0,299.0,7.44,8.55,,47.59359,-54.27349
2017-11-21 11:20:00+00:00,309.0,308.0,6.6,7.93,,47.59359,-54.27349
2017-11-21 11:30:00+00:00,301.0,297.0,7.1,8.44,,47.59359,-54.27349
2017-11-21 11:40:00+00:00,299.0,294.0,5.34,6.31,,47.59359,-54.27349
2017-11-21 11:50:00+00:00,283.0,285.0,6.44,8.61,,47.59359,-54.27349
2017-11-21 12:00:00+00:00,291.0,297.0,5.86,6.81,,47.59359,-54.27349
2017-11-21 12:10:00+00:00,294.0,290.0,6.76,8.4,,47.59359,-54.27349
2017-11-21 12:20:00+00:00,288.0,289.0,7.14,8.37,,47.59359,-54.27349
2017-11-21 12:30:00+00:00,294.0,295.0,7.11,8.22,,47.59359,-54.27349
2017-11-21 12:40:00+00:00,291.0,298.0,6.83,7.74,,47.59359,-54.27349
2017-11-21 12:50:00+00:00,302.0,300.0,8.76,10.58,,47.59359,-54.27349
2017-11-21 13:00:00+00:00,291.0,299.0,9.21,10.74,,47.59359,-54.27349
2017-11-21 13:10:00+00:00,286.0,285.0,9.03,10.35,,47.59359,-54.27349
2017-11-21 13:20:00+00:00,294.0,285.0,9.69,11.24,,47.59359,-54.27349
2017-11-21 13:30:00+00:00,299.0,308.0,9.22,10.75,,47.59359,-54.27349
2017-11-21 13:40:00+00:00,292.0,293.0,10.19,12.56,,47.59359,-54.27349
2017-11-21 13:50:00+00:00,294.0,300.0,10.67,13.49,,47.59359,-54.27349
2017-11-21 14:00:00+00:00,309.0,312.0,10.8,13.22,,47.59359,-54.27349
2017-11-21 14:10:00+00:00,296.0,297.0,10.45,12.54,,47.59359,-54.27349
2017-11-21 14:20:00+00:00,300.0,295.0,11.28,14.08,,47.59359,-54.27349
2017-11-21 14:30:00+00:00,290.0,292.0,10.73,12.33,,47.59359,-54.27349
2017-11-21 14:40:00+00:00,293.0,292.0,12.52,14.6,,47.59359,-54.27349
2017-11-21 14:50:00+00:00,291.0,294.0,11.25,13.03,,47.59359,-54.27349
2017-11-21 15:00:00+00:00,298.0,303.0,9.66,10.99,,47.59359,-54.27349
2017-11-21 15:10:00+00:00,310.0,320.0,10.4,11.61,,47.59359,-54.27349
2017-11-21 15:20:00+00:00,312.0,315.0,9.21,10.76,,47.59359,-54.27349
2017-11-21 15:30:00+00:00,286.0,286.0,13.04,14.81,,47.59359,-54.27349
2017-11-21 15:40:00+00:00,293.0,290.0,12.28,13.76,,47.59359,-54.27349
2017-11-21 15:50:00+00:00,293.0,297.0,10.46,13.08,,47.59359,-54.27349
2017-11-21 16:00:00+00:00,306.0,307.0,10.8,12.54,,47.59359,-54.27349
2017-11-21 16:10:00+00:00,316.0,315.0,10.34,11.91,,47.59359,-54.27349
2017-11-21 16:20:00+00:00,314.0,317.0,11.34,12.39,,47.59359,-54.27349
2017-11-21 16:30:00+00:00,298.0,304.0,11.36,13.38,,47.59359,-54.27349
2017-11-21 16:40:00+00:00,299.0,306.0,10.81,12.63,,47.59359,-54.27349
2017-11-21 16:50:00+00:00,293.0,285.0,10.05,11.09,,47.59359,-54.27349
2017-11-21 17:00:00+00:00,306.0,312.0,9.4,10.72,,47.59359,-54.27349
2017-11-21 17:10:00+00:00,320.0,314.0,8.59,11.11,,47.59359,-54.27349
2017-11-21 17:20:00+00:00,309.0,308.0,11.01,11.96,,47.59359,-54.27349
2017-11-21 17:30:00+00:00,320.0,314.0,11.55,13.34,,47.59359,-54.27349
2017-11-21 17:40:00+00:00,298.0,299.0,10.67,12.22,,47.59359,-54.27349
2017-11-21 17:50:00+00:00,313.0,318.0,10.34,11.7,,47.59359,-54.27349
2017-11-21 18:00:00+00:00,309.0,315.0,11.25,12.51,,47.59359,-54.27349
2017-11-21 18:10:00+00:00,309.0,308.0,11.22,12.98,,47.59359,-54.27349
2017-11-21 18:20:00+00:00,307.0,306.0,12.77,14.27,,47.59359,-54.27349
2017-11-21 18:30:00+00:00,304.0,305.0,10.9,13.39,,47.59359,-54.27349
2017-11-21 18:40:00+00:00,304.0,304.0,11.23,14.21,,47.59359,-54.27349
2017-11-21 18:50:00+00:00,296.0,294.0,12.45,14.89,,47.59359,-54.27349
2017-11-21 19:00:00+00:00,308.0,318.0,10.8,14.5,,47.59359,-54.27349
2017-11-21 19:10:00+00:00,289.0,286.0,9.85,11.06,,47.59359,-54.27349
2017-11-21 19:20:00+00:00,301.0,306.0,9.44,10.7,,47.59359,-54.27349
2017-11-21 19:30:00+00:00,310.0,309.0,9.99,11.14,,47.59359,-54.27349
2017-11-21 19:40:00+00:00,305.0,302.0,13.34,15.08,,47.59359,-54.27349
2017-11-21 19:50:00+00:00,303.0,305.0,11.63,14.31,,47.59359,-54.27349
2017-11-21 20:00:00+00:00,311.0,307.0,10.16,12.35,,47.59359,-54.27349
2017-11-21 20:10:00+00:00,307.0,298.0,8.41,9.76,,47.59359,-54.27349
2017-11-21 20:20:00+00:00,311.0,315.0,8.11,9.29,,47.59359,-54.27349
2017-11-21 20:30:00+00:00,305.0,308.0,8.01,9.09,,47.59359,-54.27349
2017-11-21 20:40:00+00:00,306.0,304.0,7.63,8.78,,47.59359,-54.27349
2017-11-21 20:50:00+00:00,313.0,310.0,10.29,12.09,,47.59359,-54.27349
2017-11-21 21:00:00+00:00,310.0,312.0,10.55,11.98,,47.59359,-54.27349
2017-11-21 21:10:00+00:00,300.0,291.0,10.12,14.61,,47.59359,-54.27349
2017-11-21 21:20:00+00:00,305.0,312.0,10.36,11.46,,47.59359,-54.27349
2017-11-21 21:30:00+00:00,303.0,302.0,8.45,10.14,,47.59359,-54.27349
2017-11-21 21:40:00+00:00,297.0,301.0,11.06,13.25,,47.59359,-54.27349
2017-11-21 21:50:00+00:00,296.0,298.0,10.43,13.06,,47.59359,-54.27349
2017-11-21 22:00:00+00:00,304.0,308.0,9.31,11.09,,47.59359,-54.27349
2017-11-21 22:10:00+00:00,311.0,313.0,8.91,10.44,,47.59359,-54.27349
2017-11-21 22:20:00+00:00,300.0,299.0,10.53,13.82,,47.59359,-54.27349
2017-11-21 22:30:00+00:00,306.0,307.0,9.71,12.67,,47.59359,-54.27349
2017-11-21 22:40:00+00:00,311.0,314.0,9.71,12.08,,47.59359,-54.27349
2017-11-21 22:50:00+00:00,319.0,321.0,11.47,15.07,,47.59359,-54.27349
2017-11-21 23:00:00+00:00,315.0,318.0,12.09,14.48,,47.59359,-54.27349
2017-11-21 23:10:00+00:00,322.0,321.0,13.48,15.69,,47.59359,-54.27349
2017-11-21 23:20:00+00:00,307.0,311.0,11.27,12.62,,47.59359,-54.27349
2017-11-21 23:30:00+00:00,311.0,313.0,10.41,12.07,,47.59359,-54.27349
2017-11-21 23:40:00+00:00,301.0,307.0,10.93,15.27,,47.59359,-54.27349
2017-11-21 23:50:00+00:00,310.0,308.0,12.42,15.52,,47.59359,-54.27349
